Home   Weather   Falkensee   Past weeks

Flag for Germany Past Weather in Falkensee, Brandenburg, Germany — Yesterday and Last 2 Weeks

Now
36 °F

Sunny.


Feels Like: 29 °F
Forecast: 39 / 49 °F
Wind: 8 mph from Southwest

Location: Berlin-Tegel

Current Time: Apr 24, 2017 at 7:36:35 am

Latest Report: Apr 24, 2017 at 6:50 am


Visibility: 10 mi

Pressure: 30.07 "Hg

Humidity: 87%

Dew Point: 32 °F

Location of FalkenseeLocation

Past Weather in Falkensee — Graph

°F

Falkensee Temperature Yesterday

Maximum temperature yesterday: 46 °F (at 12:50 pm)
Minimum temperature yesterday: 39 °F (at 12:50 am)
Average temperature yesterday: 42 °F

High & Low Weather Summary for the Past Weeks

 TemperatureHumidityPressure
High68 °F (Apr 10, 11:50 am)100% (Apr 17, 4:20 am)30.60 "Hg (Apr 17, 4:20 am)
Low28 °F (Apr 20, 4:20 am)34% (Apr 19, 4:50 pm)29.74 "Hg (Apr 12, 7:50 pm)
Average45 °F70%30.08 "Hg
* Reported Apr 9 5:20 am — Apr 24 5:50 am, Falkensee, Weather by CustomWeather, © 2017

Note: Actual official high and low records may vary slightly from our data, if they occured in-between our weather recording intervals... More about our weather records

Advertising

Falkensee Weather History for the Previous 24 Hours

Scroll right to see more
 ConditionsComfort  
Time TempWeatherWind HumidityBarometerVisibility
5:50 am
Mon, Apr 24
34 °FSunny.6 mph87%30.07 "Hg10 mi
5:20 am34 °FClear.6 mph87%30.07 "Hg10 mi
4:50 am34 °FClear.6 mph87%30.09 "Hg10 mi
4:20 am34 °FClear.6 mph87%30.09 "Hg10 mi
3:50 am34 °FChilly.6 mph87%30.09 "HgN/A
3:20 am34 °FClear.8 mph87%30.09 "Hg10 mi
2:50 am34 °FClear.8 mph87%30.09 "Hg10 mi
2:20 am36 °FClear.8 mph81%30.12 "Hg10 mi
1:50 am37 °FPassing clouds.9 mph81%30.12 "HgN/A
1:20 am39 °FClear.9 mph75%30.12 "Hg10 mi
12:50 am39 °FClear.7 mph75%30.12 "Hg10 mi
12:20 am39 °FClear.9 mph75%30.12 "Hg10 mi
11:50 pm
Sun, Apr 23
39 °FClear.8 mph75%30.12 "Hg10 mi
11:20 pm41 °FClear.8 mph70%30.12 "Hg10 mi
10:50 pm41 °FClear.9 mph70%30.12 "Hg10 mi
10:20 pm43 °FPassing clouds.10 mph66%30.12 "HgN/A
9:50 pm43 °FPassing clouds.8 mph71%30.09 "HgN/A
9:20 pm43 °FPassing clouds.8 mph66%30.09 "HgN/A
8:50 pm43 °FScattered showers. Passing clouds.10 mph66%30.09 "HgN/A
8:20 pm45 °FScattered showers. Passing clouds.12 mph61%30.09 "HgN/A
7:50 pm45 °FScattered clouds.8 mph61%30.07 "HgN/A
7:20 pm46 °FScattered clouds.13 mph53%30.07 "HgN/A
6:50 pm46 °FScattered clouds.17 mph50%30.07 "HgN/A
6:20 pm46 °FScattered clouds.17 mph53%30.07 "HgN/A
5:50 pm46 °FScattered clouds.14 mph62%30.07 "HgN/A
5:20 pm45 °FScattered clouds.15 mph71%30.07 "HgN/A
4:50 pm45 °FScattered clouds.12 mph81%30.07 "HgN/A
4:20 pm43 °FBroken clouds.10 mph81%30.07 "HgN/A
3:50 pm41 °FSprinkles. Broken clouds.23 mph87%30.07 "HgN/A
3:20 pm46 °FScattered clouds.17 mph57%30.07 "HgN/A
2:50 pm46 °FScattered clouds.18 mph62%30.07 "HgN/A
2:20 pm45 °FBroken clouds.14 mph71%30.07 "HgN/A
1:50 pm46 °FBroken clouds.17 mph66%30.07 "HgN/A
1:20 pm43 °FSprinkles. Broken clouds.16 mph81%30.07 "HgN/A
12:50 pm46 °FPartly sunny.9 mph71%30.07 "HgN/A
12:20 pm43 °FSprinkles. Scattered clouds.10 mph81%30.07 "HgN/A
11:50 am45 °FScattered clouds.10 mph81%30.07 "HgN/A
11:20 am45 °FSprinkles. Broken clouds.16 mph76%30.07 "HgN/A
10:50 am43 °FSprinkles. Broken clouds.13 mph76%30.09 "HgN/A
10:20 am43 °FLight rain. Broken clouds.13 mph87%30.09 "HgN/A
9:50 am41 °FLight rain. Broken clouds.16 mph87%30.09 "HgN/A
9:20 am41 °FLight rain. Partly sunny.13 mph87%30.07 "HgN/A
8:50 am41 °FLight rain. Partly sunny.10 mph87%30.07 "HgN/A
8:20 am41 °FLight rain. Partly sunny.9 mph81%30.07 "HgN/A
7:50 am41 °FPartly sunny.9 mph87%30.07 "HgN/A
7:20 am41 °FBroken clouds.9 mph81%30.07 "HgN/A
Weather by CustomWeather, © 2017

See weather overviewHow to use our weather pages